CW7500 Weather Reports


Display with metric or nautical units.
time (UTC)temp
F
wind
direction
speed
MPH
gust
MPH
rain 1hr
in
rain 24hr
in
rain mn
in
humidity
%
barometer
mb
20260503190512 52 257 2.0 6.0 0.00 0.02 0.00 38 1004.7
20260503190013 52 237 3.0 9.0 0.00 0.02 0.00 36 1004.7
20260503185512 52 200 1.0 10.0 0.00 0.02 0.00 35 1004.5
20260503185012 51 203 2.0 8.0 0.00 0.02 0.00 38 1004.7
20260503184512 51 271 2.0 13.0 0.00 0.02 0.00 36 1004.7
20260503184012 50 314 2.0 8.0 0.00 0.02 0.00 38 1004.7
20260503183513 50 287 6.0 10.0 0.00 0.02 0.00 37 1004.7
20260503183012 50 273 5.0 9.0 0.00 0.02 0.00 38 1004.7
20260503182512 51 254 6.0 10.0 0.00 0.02 0.00 39 1004.6
20260503182012 51 272 4.0 9.0 0.00 0.02 0.00 39 1004.7
20260503181512 52 255 2.0 6.0 0.00 0.02 0.00 39 1004.4
20260503181012 53 236 1.0 8.0 0.00 0.02 0.00 40 1004.4
20260503180012 51 34 4.0 8.0 0.00 0.02 0.00 42 1004.4
20260503175512 51 353 3.0 12.0 0.00 0.02 0.00 41 1004.6
20260503175012 50 226 5.0 13.0 0.00 0.02 0.00 42 1004.5
20260503174512 49 245 4.0 12.0 0.00 0.02 0.00 43 1004.7
20260503174012 49 254 5.0 9.0 0.00 0.02 0.00 44 1004.5
20260503173513 49 248 4.0 10.0 0.00 0.02 0.00 44 1004.5
20260503173012 49 317 2.0 10.0 0.00 0.02 0.00 43 1004.5
20260503172012 50 283 2.0 6.0 0.00 0.02 0.00 43 1004.5
20260503171012 50 221 2.0 8.0 0.00 0.02 0.00 46 1004.6
20260503170512 50 277 5.0 9.0 0.00 0.02 0.00 41 1004.7
20260503151011 45 269 2.0 12.0 0.00 0.02 0.00 66 1004.9
20260503150512 45 229 4.0 9.0 0.00 0.02 0.00 67 1004.8
20260503130511 44 291 2.0 7.0 0.00 0.04 0.00 71 1004.7
20260503090510 42 268 2.0 6.0 0.00 0.06 0.00 73 1005.7
20260503081511 43 260 1.0 3.0 0.00 0.06 0.00 71 1005.8
20260503081011 43 296 2.0 5.0 0.00 0.06 0.00 71 1006.1
20260503080510 43 280 1.0 5.0 0.00 0.06 0.00 71 1006.2
20260503072512 44 282 0.0 2.0 0.00 0.06 0.00 69 1006.6
20260503072010 44 255 1.0 3.0 0.00 0.06 0.00 69 1006.6
20260503071011 44 277 1.0 3.0 0.00 0.06 0.00 67 1006.8
20260503070511 44 274 1.0 5.0 0.00 0.06 0.00 66 1006.8
20260503055010 45 268 1.0 5.0 0.00 0.06 0.00 61 1007.6
20260503054510 45 258 3.0 5.0 0.00 0.06 0.00 64 1008.0
20260503054010 45 259 2.0 5.0 0.00 0.06 0.00 61 1008.1
20260503053510 45 273 2.0 6.0 0.00 0.06 0.00 58 1008.1
20260503053010 45 295 0.0 6.0 0.00 0.06 0.00 59 1008.0
20260503052511 45 13 2.0 5.0 0.00 0.06 0.00 61 1007.8
20260503052010 46 251 2.0 6.0 0.00 0.06 0.00 61 1008.0
20260503051510 46 259 2.0 3.0 0.00 0.06 0.00 61 1008.1
20260503045010 46 340 2.0 5.0 0.00 0.06 0.00 59 1008.2
20260503044510 46 257 1.0 2.0 0.00 0.06 0.00 62 1008.2
20260503044009 46 166 2.0 7.0 0.00 0.06 0.00 63 1008.2
20260503043510 46 272 1.0 5.0 0.00 0.06 0.00 63 1008.2
20260503043010 46 290 2.0 6.0 0.00 0.06 0.00 65 1008.4
20260503042510 46 278 2.0 5.0 0.00 0.06 0.00 67 1008.2
20260503041509 47 261 2.0 3.0 0.00 0.06 0.00 75 1008.6
20260503041010 47 266 2.0 5.0 0.00 0.06 0.00 78 1008.6
20260503040510 47 358 2.0 5.0 0.00 0.06 0.00 80 1008.8
20260503040010 47 286 2.0 5.0 0.00 0.06 0.00 82 1008.8
20260503035510 47 265 2.0 5.0 0.00 0.06 0.06 84 1008.9
20260503035010 47 308 1.0 3.0 0.00 0.06 0.06 81 1008.8
20260503034510 47 300 2.0 5.0 0.00 0.06 0.06 78 1008.8
20260503033010 47 263 2.0 6.0 0.00 0.06 0.06 79 1008.8
20260503032510 47 228 1.0 3.0 0.00 0.06 0.06 85 1008.8
20260503032010 47 42 1.0 5.0 0.00 0.06 0.06 96 1008.7
20260503031510 47 275 1.0 2.0 0.00 0.06 0.06 99 1008.9
20260503031010 47 134 0.0 2.0 0.00 0.06 0.06 100 1008.9
20260503030010 47 302 1.0 2.0 0.00 0.06 0.06 100 1009.0
20260503025510 47 247 1.0 5.0 0.00 0.06 0.06 100 1009.0
20260503025009 47 247 1.0 2.0 0.00 0.06 0.06 100 1008.9
20260503024509 47 262 1.0 1.0 0.00 0.06 0.06 100 1008.9
20260503024010 47 255 0.0 1.0 0.00 0.06 0.06 100 1008.7
20260503023509 47 277 0.0 1.0 0.00 0.06 0.06 100 1008.6
20260503023010 47 286 0.0 0.0 0.00 0.06 0.06 100 1008.8
20260503022510 47 336 0.0 1.0 0.00 0.06 0.06 100 1008.8
20260503021509 47 343 0.0 1.0 0.00 0.06 0.06 100 1008.9
20260503021010 47 272 0.0 0.0 0.00 0.06 0.06 100 1009.0
20260503020510 47 316 0.0 1.0 0.00 0.06 0.06 100 1009.1
20260503020009 47 74 0.0 3.0 0.00 0.06 0.06 100 1009.1
20260503015509 47 15 0.0 2.0 0.00 0.06 0.06 100 1009.2
20260503015010 47 28 1.0 5.0 0.00 0.06 0.06 100 1009.2
20260503014509 47 40 1.0 3.0 0.00 0.06 0.06 100 1009.2
20260503014009 47 85 0.0 1.0 0.00 0.06 0.06 100 1009.2
20260503013510 47 265 0.0 1.0 0.00 0.06 0.06 100 1009.2
20260503013009 47 238 0.0 0.0 0.00 0.06 0.06 100 1009.1
20260503012510 47 223 1.0 1.0 0.00 0.06 0.06 100 1009.1
20260503011509 47 241 1.0 1.0 0.00 0.06 0.06 100 1008.9
20260503011010 47 236 0.0 1.0 0.00 0.06 0.06 100 1008.9
20260503010509 47 249 0.0 1.0 0.00 0.06 0.06 100 1008.9
20260503005509 47 238 0.0 0.0 0.00 0.06 0.06 100 1008.6
20260503005009 47 238 0.0 0.0 0.00 0.06 0.06 100 1008.6
20260503004510 47 144 0.0 0.0 0.00 0.06 0.06 100 1008.6
20260503003509 47 147 0.0 0.0 0.00 0.06 0.06 100 1008.7
20260503003010 47 147 0.0 0.0 0.00 0.06 0.06 100 1008.6
20260503002510 47 264 0.0 0.0 0.00 0.06 0.06 100 1008.6
20260503002009 47 271 0.0 1.0 0.00 0.06 0.06 100 1008.6
20260503001510 47 253 0.0 1.0 0.00 0.06 0.06 100 1008.6
20260503000509 47 206 0.0 0.0 0.00 0.06 0.06 100 1008.6
20260503000010 47 218 0.0 1.0 0.00 0.06 0.06 100 1008.7
20260502235509 47 139 0.0 1.0 0.00 0.06 0.06 100 1008.5
20260502235009 48 181 1.0 1.0 0.00 0.06 0.06 100 1008.6
20260502234509 48 139 0.0 0.0 0.00 0.06 0.06 99 1008.6
20260502234009 48 135 0.0 1.0 0.00 0.06 0.06 99 1008.6
20260502233509 48 154 0.0 1.0 0.00 0.06 0.06 99 1008.5
20260502233010 48 168 0.0 0.0 0.00 0.06 0.06 99 1008.5
20260502232509 48 218 0.0 0.0 0.00 0.06 0.06 99 1008.5
20260502232009 48 173 0.0 1.0 0.00 0.06 0.06 99 1008.5
20260502231509 48 221 0.0 0.0 0.00 0.06 0.06 99 1008.5
20260502231009 48 230 0.0 1.0 0.00 0.06 0.06 99 1008.5
20260502225509 48 203 0.0 0.0 0.02 0.06 0.06 98 1008.4
20260502225010 48 216 0.0 2.0 0.02 0.06 0.06 98 1008.5
20260502224509 48 229 0.0 1.0 0.02 0.06 0.06 98 1008.4
20260502224009 48 216 0.0 0.0 0.02 0.06 0.06 98 1008.3
20260502223509 48 191 0.0 1.0 0.02 0.06 0.06 98 1008.3
20260502222509 48 173 0.0 0.0 0.02 0.06 0.06 96 1008.2
20260502222009 48 131 0.0 1.0 0.02 0.06 0.06 96 1008.4
20260502221509 48 208 0.0 1.0 0.02 0.06 0.06 95 1008.5
20260502221009 48 117 0.0 0.0 0.02 0.06 0.06 95 1008.5
20260502220509 48 172 0.0 0.0 0.00 0.04 0.04 94 1008.6
20260502220009 48 205 0.0 1.0 0.00 0.04 0.04 93 1008.6
20260502215509 48 230 1.0 1.0 0.00 0.04 0.04 93 1008.6
20260502214509 48 217 0.0 1.0 0.00 0.04 0.04 93 1008.6
20260502214008 48 198 0.0 1.0 0.00 0.04 0.04 93 1008.7
20260502213008 49 255 1.0 2.0 0.00 0.04 0.04 92 1008.6
20260502212509 49 225 1.0 2.0 0.00 0.04 0.04 90 1008.6
20260502212009 50 248 2.0 5.0 0.00 0.04 0.04 84 1008.6
20260502211509 50 280 2.0 5.0 0.00 0.04 0.04 82 1008.6
20260502211009 50 287 2.0 6.0 0.00 0.04 0.04 81 1008.6
20260502205509 53 241 3.0 6.0 0.00 0.04 0.04 69 1008.5
20260502205008 54 188 2.0 5.0 0.00 0.04 0.04 65 1008.4
20260502204509 55 267 1.0 6.0 0.00 0.04 0.04 66 1008.1
20260502203509 55 233 2.0 5.0 0.00 0.04 0.04 61 1008.2
20260502203009 56 154 2.0 6.0 0.00 0.04 0.04 58 1008.2
20260502202509 56 168 2.0 6.0 0.00 0.04 0.04 59 1008.2
20260502202009 55 202 2.0 5.0 0.00 0.04 0.04 62 1008.2
20260502201509 55 164 3.0 6.0 0.00 0.04 0.04 63 1008.4
20260502200508 56 200 2.0 8.0 0.00 0.04 0.04 60 1008.4
20260502195509 56 103 2.0 5.0 0.00 0.04 0.04 58 1008.3
20260502195009 56 236 2.0 6.0 0.00 0.04 0.04 63 1008.5
20260502194508 55 244 3.0 7.0 0.00 0.04 0.04 55 1008.5
20260502194009 55 188 3.0 9.0 0.00 0.04 0.04 48 1008.7
20260502193509 55 241 3.0 6.0 0.00 0.04 0.04 54 1008.6
20260502193008 56 279 3.0 9.0 0.00 0.04 0.04 49 1008.7
20260502192509 56 216 4.0 9.0 0.00 0.04 0.04 46 1008.9
20260502192008 56 237 3.0 6.0 0.00 0.04 0.04 47 1008.9
20260502191508 56 119 3.0 7.0 0.00 0.04 0.04 59 1009.0